Regional Weather Roundup
Issued by NWS Cleveland, OH

Home | Current Version | Previous Version | Graphics & Text | Print | Product List | Glossary On
Versions: 1 2 3 4 5 6 7 8 9 10 11 12 13 14 15 16 17 18 19 20 21 22 23 24 25 26 27 28 29 30 31 32 33 34 35 36 37 38 39 40 41 42 43 44 45 46 47 48 49 50
000
ASUS41 KCLE 041100
RWRCLE
OHIO REGIONAL WEATHER ROUNDUP
NATIONAL WEATHER SERVICE WILMINGTON, OH
600 AM EST WED MAR 04 2015

NOTE: "FAIR" INDICATES FEW OR NO CLOUDS BELOW 12,000 FEET WITH NO
SIGNIFICANT WEATHER AND/OR OBSTRUCTIONS TO VISIBILITY.

OHZ001>008-015>018-024>027-034-035-043-044-041200-
   NORTHWEST OHIO

CITY           SKY/WX    TMP DP  RH WIND       PRES   REMARKS
DEFIANCE       CLOUDY    32  26  78 VRB3      29.90R
FINDLAY        CLOUDY    34  29  82 W6        29.87R WCI  29
TOLEDO EXPRESS CLOUDY    31  24  75 NW5       29.87R WCI  26
TOLEDO EXEC    CLOUDY    33  24  69 W10       29.89R WCI  25
LIMA           CLOUDY    34  30  85 W9        29.87R WCI  27
$$

OHZ009>014-019>023-028>033-038-089-041200-
   NORTHEAST OHIO

CITY           SKY/WX    TMP DP  RH WIND       PRES   REMARKS
CLE-HOPKINS    CLOUDY    34  29  82 SW6       29.88R WCI  29
CLE-LAKEFRONT  CLOUDY    34  30  85 W8        29.85F WCI  27
CUY CO. ARPT   NOT AVBL
LORAIN-ELYRIA  CLOUDY    33  30  88 W7        29.86R WCI  27
ASHTABULA      CLOUDY    33  27  78 W5        29.84R WCI  29
AKRON-CANTON   CLOUDY    34  29  82 NW10      29.85R WCI  26
WOOSTER        NOT AVBL
MANSFIELD      CLOUDY    33  30  88 W6        29.86R WCI  28
YOUNGSTOWN     CLOUDY    34  29  82 W9        29.84R WCI  27
$$

OHZ042-051>053-060>062-070>072-077>081-041200-
  SOUTHWEST OHIO

CITY           SKY/WX    TMP DP  RH WIND       PRES   REMARKS
CINC-COVINGTON LGT RAIN  37  36  96 CALM      29.91R FOG
CINC-LUNKEN    LGT RAIN  35  35 100 CALM      29.94R FOG
HAMILTON       LGT RAIN  36  35  96 W3        29.94R FOG
DAYTON         NOT AVBL
WRIGHT-PAT AFB NOT AVBL
DAYTON GENERAL MIX PCPN  35  33  92 NW3       29.90R FOG
WILMINGTON     LGT RAIN  34  33  96 SW3       29.89R FOG
$$

OHZ036-037-039>041-045>050-054>059-063>069-073>076-082>088-041200-
  CENTRAL AND SOUTHEAST OHIO

CITY           SKY/WX    TMP DP  RH WIND       PRES   REMARKS
COLUMBUS       CLOUDY    33  33 100 W3        29.90R FOG
OSU AIRPORT    CLOUDY    33  32  96 W3        29.89R FOG
BOLTON FIELD   NOT AVBL
RICKENBACK AFB NOT AVBL
NEWARK         LGT RAIN  34  32  92 W5        29.89R WCI  30
MARION         CLOUDY    34  30  85 W3        29.88R
LANCASTER      LGT RAIN  35  34  96 CALM      29.90R FOG
ZANESVILLE     LGT RAIN  35  33  92 S5        29.89R FOG
NEW PHILLY     CLOUDY    34  32  92 CALM      29.88R FOG
$$



USA.gov is the U.S. government's official web portal to all federal, state and local government web resources and services.